Weather observations for the past three days for
Aspen-Pitkin County Airport
Imperial (Metric)
Date Time (mdt) Wind (mph) Vis. (mi.) Weather Sky Cond. Temperature (ºF) Relative Humidity Wind Chill (°F) Heat Index (°F) Pressure Precipitation (in)
Air Dwpt 6 hour altimeter (in) sea level (mb) 1 hr 3 hr 6 hr
Max. Min.
20 03:53 SE 10 10.00 A Few Clouds FEW110 61 39 44% 30.23 1010.5
20 02:53 SE 12 10.00 Fair CLR 59 39.9 49% 30.22 1010.9
20 01:53 SE 6 10.00 Fair CLR 59 39 48% 30.22 1010.4
20 00:53 SE 10 10.00 Partly Cloudy SCT110 61 39.9 46% 30.23 1010.0
19 23:53 SE 14 10.00 Overcast OVC110 59 41 71.1 57 51% 30.24 1011.1
19 22:53 SE 8 10.00 Mostly Cloudy FEW065 SCT080 BKN110 59 41 51% 30.25 1012.0
19 21:53 Vrbl 3 10.00 Light Rain FEW060 BKN075 OVC100 59 42.1 54% 30.24 1012.3
19 20:53 NW 9 10.00 Overcast BKN100 OVC110 59 43 56% 30.21 1012.7
19 19:53 W 17 G 38 10.00 Light Rain FEW060 SCT080 OVC110 61 39.9 46% 30.21 1012.9
19 18:53 SW 9 G 23 10.00 Overcast OVC110 66.9 35.1 31% 30.19 1011.9
19 17:53 SW 17 G 36 10.00 Mostly Cloudy FEW070 BKN100 BKN110 68 35.1 75 66.9 30% 30.18 1012.3
19 16:53 N 6 10.00 Mostly Cloudy SCT090 BKN110 73 34 24% 30.16 1010.7
19 15:53 SE 7 10.00 Mostly Cloudy BKN090 BKN120 70 37.9 31% 30.16 1011.4
19 14:53 SW 13 G 22 10.00 Light Rain SCT055 OVC070 66.9 37.9 35% 30.19 1012.5
19 13:53 SW 10 G 26 10.00 Mostly Cloudy SCT070 BKN095 73 35.1 25% 30.16 1010.1
19 12:53 S 21 G 40 10.00 Mostly Cloudy and Breezy BKN095 75 32 21% 76 30.17 1009.7
19 11:53 S 13 G 20 10.00 Fair CLR 72 33.1 72 37.9 24% 30.17 1010.1
19 10:53 SE 15 G 22 10.00 A Few Clouds FEW110 69.1 33.1 26% 30.18 1010.4
19 09:53 Calm 10.00 Fair CLR 63 34 34% 30.18 1011.0
19 08:53 N 6 10.00 A Few Clouds FEW110 53.1 33.1 47% 30.19 1012.5
19 07:53 N 5 10.00 Fair CLR 48 32 54% 47 30.19 1011.9
19 06:53 Calm 10.00 A Few Clouds FEW120 44.1 33.1 65% 30.17 1011.7
19 05:53 Calm 10.00 A Few Clouds FEW120 37.9 30.9 48 37 76% 30.15 1011.2
19 04:53 S 5 10.00 A Few Clouds FEW120 37.9 30 73% 35 30.14 1010.5
19 03:53 Calm 10.00 Fair CLR 37.9 30 73% 30.13 1010.3
19 02:53 SW 3 10.00 Fair CLR 39.9 30 68% 30.12 1010.2
19 01:53 S 3 10.00 Fair CLR 44.1 30 58% 30.14 1010.1
19 00:53 SW 9 10.00 Partly Cloudy SCT110 46.9 30 52% 43 30.15 1011.0
18 23:53 Calm 10.00 Fair CLR 48 30 70 48 50% 30.16 1011.6
18 22:53 S 6 10.00 Fair CLR 50 30 46% 48 30.16 1011.9
18 21:53 SW 7 10.00 Fair CLR 52 28.9 41% 30.15 1011.9
18 20:53 SW 3 10.00 Fair CLR 55 30 38% 30.11 1010.0
18 19:53 N 7 10.00 Fair CLR 64 27 25% 30.06 1007.4
18 18:53 N 9 G 23 10.00 Fair CLR 66 28 24% 30.03 1006.7
18 17:53 N 13 G 25 10.00 Fair CLR 70 26.1 72 59 19% 30.01 1005.6
18 16:53 W 13 G 21 10.00 A Few Clouds FEW110 72 25 17% 30.02 1005.8
18 15:53 N 10 G 17 10.00 A Few Clouds FEW110 71.1 24.1 17% 30.02 1005.0
18 14:53 NW 7 G 18 10.00 A Few Clouds FEW100 66.9 28.9 24% 30.03 1005.2
18 13:53 N 12 G 16 10.00 Partly Cloudy SCT100 68 30.9 25% 30.01 1003.5
18 12:53 Vrbl 7 10.00 A Few Clouds FEW100 63 30.9 30% 30.02 1005.3
18 11:53 NE 8 G 18 10.00 Fair CLR 59 30 59 39 33% 30.03 1005.4
18 10:53 N 7 10.00 Fair CLR 55 28 36% 30.04 1006.4
18 09:53 Vrbl 5 10.00 Fair CLR 52 26.1 37% 30.05 1007.1
18 08:53 NW 10 10.00 Fair CLR 50 27 41% 46 30.04 1006.0
18 07:53 N 6 10.00 Fair CLR 48 28.9 48% 46 30.02 1004.4
18 06:53 SE 3 10.00 Fair CLR 43 32 65% 30.01 1004.6
18 05:53 Calm 10.00 Fair CLR 41 30 60.1 37.9 65% 30 1004.0
18 04:53 SW 5 10.00 Fair CLR 39.9 30 68% 37 29.98 1003.7
18 03:53 Calm 10.00 Fair CLR 46.9 28.9 50% 29.96 1001.8
18 02:53 NW 8 10.00 Fair CLR 52 28.9 41% 29.92 999.8
18 01:53 N 10 G 20 10.00 A Few Clouds FEW110 57 28.9 34% 29.86 996.8
18 00:53 SE 8 10.00 Fair CLR 52 27 38% 29.8 995.6
17 23:53 Vrbl 5 10.00 Fair CLR 57.9 27 78.1 57.9 31% 29.81 995.5
17 22:53 SE 7 10.00 Fair CLR 59 27 29% 29.82 995.8
17 21:53 S 7 10.00 Fair CLR 59 30 33% 29.81 995.7
17 20:53 SW 8 10.00 A Few Clouds FEW120 64.9 30.9 28% 29.8 995.2
17 19:53 W 8 G 17 10.00 Fair CLR 73 21 14% 29.78 994.6
17 18:53 SW 8 G 30 10.00 Fair CLR 75.9 21 13% 76 29.77 994.6
17 17:53 W 13 G 32 10.00 Fair CLR 78.1 21.9 81 75 12% 77 29.76 994.7
17 16:53 W 14 G 21 10.00 Fair CLR 78.1 23 13% 77 29.77 994.8
17 15:53 S 16 G 37 10.00 Fair CLR 79 24.1 13% 78 29.79 994.8
17 14:53 S 12 G 29 10.00 Fair CLR 79 23 12% 78 29.8 995.6
17 13:53 W 18 G 31 10.00 Fair CLR 79 24.1 13% 78 29.81 995.8
17 12:53 S 7 G 25 10.00 Fair CLR 77 21.9 13% 76 29.84 996.6
17 11:53 S 9 10.00 Fair CLR 75 21.9 77 46 14% 75 29.86 997.8
17 10:53 S 12 G 23 10.00 Fair CLR 75 21 13% 75 29.88 998.0
17 09:53 SW 17 G 24 10.00 Fair CLR 73 19.9 13% 29.9 998.7
17 08:53 S 15 G 20 10.00 Fair CLR 66 33.1 29% 29.91 999.9
17 07:53 SE 5 10.00 Fair CLR 57.9 28.9 33% 29.93 1000.3
17 06:53 S 9 10.00 Fair CLR 53.1 27 37% 29.93 1000.1
17 05:53 S 9 10.00 Fair CLR 48 25 57.9 46 41% 44 29.92 1000.4
17 04:53 S 5 10.00 Fair CLR 50 25 38% 49 29.91 999.7
Date Time (mdt) Wind (mph) Vis. (mi.) Weather Sky Cond. Air Dwpt Max. Min. Relative Humidity Wind Chill (°F) Heat Index (°F) altimeter (in) sea level (mb) 1 hr 3 hr 6 hr
6 hour
Temperature (ºF) Pressure Precipitation (in)